[[{"header":{"parameterUnit":"m.s-1","parameterCategory":1,"la1":30.2991,"la2":30.254,"lo1":-89.0895,"lo2":-89.0444,"dy":0.0017,"dx":0.0017,"nx":28,"ny":28,"refTime":"2024-03-18T21:00:00:Z","depth":0,"parameterNumber":2,"parameterNumberName":"U-component_of_WINDS"},"data":[0,0,0,0,0,0,0,0,0,0,0,0,0,0,0,0,0,0,0,0,0,0,0,0,0,0,0,0,0,0,0,0,0,0,0,0,0,0,0,0,0,0,0,0,0,0,0,0,0,0,0,0,0,0,0,0,0,0,0.7883,0.7883,0,0.7948,0.7949,0.7949,0.7992,0.7992,0.7992,0.7992,0.806,0.8062,0.8063,0,0,0,0,0,0,0,0,0,0,0,0,0,0.7796,0.7797,0.7883,0.7883,0.7884,0.7948,0.7949,0.7949,0.7992,0.7992,0.7992,0.7993,0.806,0.8061,0.8063,0,0,0,0,0,0,0,0,0,0,0,0,0,0.7844,0.7798,0.7882,0.7913,0.7916,0.7947,0.7949,0.795,0.7992,0.7992,0.7992,0.7993,0.8059,0.8061,0.8064,0.807,0,0,0.8071,0.8072,0,0,0,0,0,0,0,0,0.7842,0.7848,0.7908,0.7911,0.7915,0.7962,0.7943,0.799,0.7991,0.7963,0.7992,0.7993,0.8027,0.8032,0.8044,0.8073,0.8076,0.8071,0.8072,0.8073,0.8074,0,0,0,0,0,0,0,0.7838,0.7845,0.7908,0.7908,0.7913,0.7924,0.7931,0.7952,0.7992,0.7965,0.7969,0.7976,0.8029,0.8041,0.8045,0.8077,0.8071,0.8073,0.8074,0.8075,0.8115,0.8115,0,0,0,0,0,0,0.783,0.7842,0.7906,0.791,0.7878,0.7925,0.7933,0.7946,0.7992,0.7999,0.7975,0.7977,0.8037,0.8043,0.8048,0.8058,0.8073,0.8075,0.8077,0.8115,0.8115,0.8114,0,0,0,0,0,0,0.7828,0.7835,0.7904,0.7877,0.7887,0.7926,0.7941,0.7947,0.7959,0.7999,0.8007,0.798,0.8038,0.8045,0.8064,0.8061,0.8077,0.8079,0.8116,0.8115,0.8115,0.8078,0,0,0,0,0,0,0.7825,0.7834,0.7837,0.7877,0.7888,0.7918,0.794,0.7948,0.7963,0.7967,0.8006,0.8013,0.8038,0.806,0.8066,0.8064,0.808,0.8116,0.8115,0.8115,0.808,0.8077,0.8074,0,0,0,0,0,0.7822,0.7824,0.7837,0.7844,0.7892,0.7918,0.7924,0.7954,0.7963,0.7966,0.7992,0.8012,0.806,0.8062,0.8069,0.8068,0.8116,0.8116,0.8115,0.8081,0.8077,0.8074,0,0,0,0,0,0,0.7783,0.783,0.7844,0.786,0.7884,0.7925,0.793,0.7948,0.7971,0.7974,0.8009,0.8018,0.8033,0.8053,0.8054,0.8076,0.8091,0.8091,0.8063,0.8059,0.8056,0.8051,0.8082,0,0,0,0,0,0.7776,0.7793,0.7834,0.7843,0.7855,0.789,0.7903,0.7923,0.795,0.7961,0.7988,0.8014,0.8035,0.8049,0.8071,0.8083,0.8092,0.8086,0.8083,0.808,0.808,0.8088,0.8085,0.8112,0.8112,0.8112,0,0,0.7763,0.779,0.7799,0.7836,0.7858,0.7875,0.7899,0.7916,0.7929,0.7964,0.7983,0.8004,0.8036,0.8051,0.806,0.8068,0.8075,0.8079,0.8077,0.8078,0.8087,0.8084,0.8082,0.8111,0.8112,0.8112,0,0,0.7746,0.7769,0.7779,0.78,0.7832,0.7856,0.7858,0.7896,0.7911,0.7931,0.7958,0.7974,0.801,0.8031,0.8047,0.8038,0.8057,0.8044,0.8028,0.8035,0.8033,0.8031,0.8027,0.8026,0.8044,0.8044,0.8044,0,0.7725,0.7751,0.7782,0.7797,0.7813,0.7845,0.7856,0.7875,0.7913,0.7923,0.7932,0.7977,0.8001,0.8022,0.802,0.8031,0.8035,0.8039,0.803,0.8029,0.8028,0.8025,0.8023,0.8042,0.8042,0.8043,0.8043,0,0.7723,0.7741,0.7745,0.778,0.7797,0.781,0.7843,0.7856,0.7875,0.7897,0.7917,0.7947,0.7975,0.7981,0.8,0.8005,0.8009,0.8024,0.8039,0.8023,0.8021,0.802,0.804,0.804,0.8041,0.8041,0,0,0.7683,0.7735,0.7736,0.7753,0.7791,0.7805,0.782,0.7847,0.7857,0.7882,0.7895,0.7925,0.7938,0.7956,0.7978,0.7984,0.7974,0.7998,0.7999,0.7992,0.7981,0.7968,0.7967,0.7987,0.7987,0.7987,0.7978,0,0.7672,0.7699,0.7727,0.7744,0.7761,0.7792,0.7805,0.783,0.7851,0.7869,0.7893,0.7913,0.793,0.794,0.7948,0.7974,0.7972,0.7975,0.7999,0.8,0.799,0.7966,0.7953,0.7942,0.7977,0.7977,0.7977,0,0.7662,0.7685,0.7703,0.7739,0.7748,0.7758,0.7785,0.7802,0.7831,0.7846,0.7865,0.7888,0.7905,0.7919,0.7942,0.7943,0.7955,0.7969,0.797,0.7973,0.7987,0.7967,0.794,0.7938,0.7976,0.7976,0.7976,0,0.763,0.7666,0.7681,0.7694,0.7737,0.7744,0.7762,0.7791,0.7806,0.783,0.7839,0.7865,0.7879,0.7898,0.7927,0.7935,0.7948,0.7964,0.796,0.796,0.7961,0.796,0.7935,0.797,0.797,0.797,0.797,0,0.7613,0.7623,0.7667,0.7677,0.7689,0.7722,0.7733,0.7754,0.778,0.7794,0.7823,0.7836,0.7874,0.7892,0.7915,0.7931,0.7937,0.795,0.7955,0.7946,0.7945,0.7954,0.7955,0.797,0.797,0.797,0.797,0,0.7579,0.7609,0.7628,0.7667,0.7677,0.7684,0.7718,0.7728,0.7752,0.7769,0.7775,0.7812,0.7834,0.7865,0.7897,0.7913,0.7925,0.7935,0.7914,0.7918,0.7912,0.7912,0.7891,0.789,0.7926,0.7926,0.7926,0,0.7566,0.7574,0.7614,0.7626,0.7643,0.7661,0.7676,0.7709,0.7723,0.7756,0.7763,0.7787,0.7808,0.7841,0.7871,0.7895,0.7905,0.7897,0.7909,0.79,0.7904,0.7903,0.7904,0.7893,0.7892,0.7892,0.7892,0,0.754,0.7554,0.7574,0.7599,0.7615,0.7637,0.766,0.7668,0.7706,0.772,0.7743,0.7759,0.7791,0.7814,0.7843,0.7862,0.7883,0.7887,0.7888,0.7878,0.7866,0.7871,0.7905,0.7888,0.7888,0.7888,0.7889,0.7889,0.7515,0.7524,0.7553,0.7574,0.7595,0.7615,0.7627,0.7651,0.7671,0.7699,0.7718,0.7739,0.7768,0.7808,0.7826,0.7844,0.7852,0.7853,0.7853,0.7852,0.7849,0.7864,0.7849,0.7849,0.7849,0.7849,0.785,0,0.749,0.751,0.7529,0.756,0.7576,0.7595,0.7621,0.7633,0.7652,0.7677,0.7697,0.7723,0.7745,0.7777,0.7802,0.781,0.782,0.7815,0.7814,0.7818,0.784,0.7837,0.7806,0.7806,0.7806,0.7806,0.7806,0.7806,0.7478,0.7493,0.7511,0.7537,0.7558,0.7578,0.7592,0.7611,0.7631,0.7658,0.7677,0.7697,0.7725,0.7752,0.7774,0.7783,0.779,0.7782,0.7793,0.7813,0.7817,0.782,0.7818,0.7784,0.7784,0.777,0.777,0.777]},{"header":{"parameterUnit":"m.s-1","parameterCategory":1,"la1":30.2991,"la2":30.254,"lo1":-89.0895,"lo2":-89.0444,"dy":0.0017,"dx":0.0017,"nx":28,"ny":28,"refTime":"2024-03-18T21:00:00:Z","depth":0,"parameterNumber":3,"parameterNumberName":"V-component_of_WINDS"},"data":[0,0,0,0,0,0,0,0,0,0,0,0,0,0,0,0,0,0,0,0,0,0,0,0,0,0,0,0,0,0,0,0,0,0,0,0,0,0,0,0,0,0,0,0,0,0,0,0,0,0,0,0,0,0,0,0,0,0,0.5578,0.5577,0,0.5525,0.5524,0.5523,0.5504,0.5504,0.5504,0.5504,0.5449,0.5448,0.5446,0,0,0,0,0,0,0,0,0,0,0,0,0,0.5659,0.5658,0.5578,0.5577,0.5576,0.5525,0.5524,0.5523,0.5504,0.5504,0.5504,0.5504,0.545,0.5448,0.5446,0,0,0,0,0,0,0,0,0,0,0,0,0,0.5617,0.5658,0.5578,0.556,0.5558,0.5525,0.5524,0.5523,0.5504,0.5504,0.5504,0.5504,0.545,0.5448,0.5446,0.5426,0,0,0.5438,0.5437,0,0,0,0,0,0,0,0,0.5619,0.5614,0.5564,0.5561,0.5559,0.5521,0.5533,0.549,0.5504,0.5524,0.5504,0.5504,0.5473,0.5469,0.5458,0.5423,0.5421,0.5438,0.5437,0.5436,0.5435,0,0,0,0,0,0,0,0.5622,0.5616,0.5557,0.5563,0.556,0.5554,0.5549,0.5525,0.5498,0.5523,0.5521,0.5515,0.5472,0.5461,0.5457,0.542,0.5438,0.5436,0.5434,0.5433,0.5363,0.5362,0,0,0,0,0,0,0.5628,0.5619,0.5558,0.5555,0.559,0.5553,0.5546,0.5533,0.5498,0.5493,0.5515,0.5514,0.5465,0.546,0.5455,0.5427,0.5436,0.5433,0.5432,0.5363,0.5363,0.5362,0,0,0,0,0,0,0.563,0.5623,0.5561,0.5586,0.5578,0.5551,0.5536,0.5532,0.5521,0.5492,0.5487,0.5508,0.5465,0.5458,0.5432,0.5425,0.5432,0.543,0.5364,0.5363,0.5362,0.5373,0,0,0,0,0,0,0.5633,0.5624,0.5617,0.5586,0.5577,0.554,0.5536,0.5531,0.5517,0.5515,0.5485,0.548,0.5464,0.5436,0.543,0.5422,0.5428,0.5364,0.5363,0.5363,0.5373,0.5373,0.5372,0,0,0,0,0,0.5636,0.5622,0.5617,0.5609,0.5567,0.554,0.5534,0.5516,0.5516,0.5508,0.5489,0.5481,0.5427,0.5434,0.5427,0.5417,0.5365,0.5364,0.5363,0.5373,0.5373,0.5372,0,0,0,0,0,0,0.5653,0.5618,0.5611,0.5588,0.5567,0.5536,0.5526,0.5517,0.5495,0.5495,0.5473,0.5467,0.5442,0.5427,0.5436,0.5395,0.5395,0.5393,0.5405,0.5405,0.5404,0.5408,0.5426,0,0,0,0,0,0.5654,0.5635,0.5605,0.5587,0.5577,0.5553,0.5541,0.5528,0.5506,0.5497,0.5476,0.5454,0.5432,0.5417,0.5396,0.5371,0.5363,0.5361,0.536,0.536,0.5358,0.5341,0.534,0.5359,0.5359,0.5359,0,0,0.5656,0.5635,0.5624,0.559,0.5572,0.5552,0.5546,0.5525,0.5509,0.5493,0.5467,0.5452,0.5425,0.5399,0.5387,0.5386,0.5351,0.5359,0.5359,0.5357,0.534,0.5338,0.5337,0.5359,0.5359,0.5359,0,0,0.5649,0.5632,0.5614,0.5596,0.5568,0.5552,0.5548,0.5518,0.5507,0.5481,0.5467,0.5448,0.5411,0.5392,0.5377,0.536,0.5351,0.5354,0.5352,0.5336,0.5334,0.5332,0.5325,0.5322,0.5352,0.5352,0.5352,0,0.5655,0.5624,0.5606,0.5585,0.557,0.5554,0.5534,0.5518,0.5485,0.5474,0.5474,0.5425,0.5406,0.5374,0.537,0.5359,0.5352,0.5357,0.5336,0.5334,0.5332,0.5325,0.5322,0.5352,0.5352,0.5352,0.5352,0,0.5632,0.5611,0.5599,0.5567,0.5551,0.5531,0.5508,0.5493,0.5482,0.5466,0.5437,0.5414,0.5386,0.5378,0.5367,0.5344,0.5344,0.534,0.534,0.5331,0.5323,0.532,0.5353,0.5353,0.5353,0.5353,0,0,0.5636,0.5592,0.5588,0.5572,0.554,0.5522,0.5501,0.5473,0.546,0.5437,0.5418,0.5385,0.5381,0.5364,0.5351,0.5337,0.5323,0.5335,0.5334,0.5332,0.5293,0.5295,0.5292,0.5317,0.5316,0.5316,0.5294,0,0.5623,0.5584,0.5566,0.5535,0.5513,0.5497,0.5478,0.5455,0.5439,0.5418,0.5399,0.5376,0.5373,0.5362,0.5348,0.5328,0.5314,0.5329,0.5297,0.5296,0.5303,0.5288,0.5291,0.5272,0.5291,0.5291,0.529,0,0.5604,0.558,0.5547,0.5515,0.5505,0.5489,0.546,0.5441,0.5414,0.5403,0.5383,0.537,0.5345,0.5347,0.5312,0.5322,0.5307,0.5295,0.5294,0.5289,0.5292,0.5281,0.5266,0.5262,0.5286,0.5286,0.5287,0,0.5608,0.5568,0.5542,0.5529,0.5492,0.548,0.5463,0.5437,0.5421,0.5396,0.5384,0.5357,0.5342,0.5321,0.53,0.5303,0.5265,0.5266,0.5254,0.5254,0.5246,0.5247,0.5226,0.5239,0.5239,0.5239,0.524,0,0.5596,0.5575,0.5543,0.5527,0.5503,0.5481,0.5458,0.544,0.5416,0.5395,0.538,0.536,0.5335,0.5312,0.5295,0.5267,0.5261,0.525,0.5245,0.525,0.5251,0.524,0.524,0.5239,0.5239,0.5239,0.5239,0,0.5596,0.5574,0.5544,0.551,0.5501,0.5484,0.5455,0.5438,0.542,0.5394,0.5386,0.5358,0.533,0.5307,0.527,0.5259,0.5229,0.5225,0.5238,0.5235,0.5224,0.5224,0.5194,0.5188,0.5206,0.5206,0.5206,0,0.5589,0.5573,0.5536,0.5521,0.5505,0.5481,0.5464,0.5441,0.5423,0.539,0.5376,0.5347,0.5322,0.5278,0.5254,0.5225,0.5219,0.521,0.5215,0.5219,0.5216,0.5217,0.5214,0.5209,0.5209,0.5209,0.5209,0,0.5579,0.5568,0.5544,0.5514,0.5494,0.547,0.5446,0.5434,0.5407,0.5388,0.5358,0.5339,0.5301,0.5271,0.5239,0.5221,0.521,0.5208,0.5203,0.5208,0.5215,0.5209,0.5235,0.5209,0.5209,0.5209,0.5209,0.5209,0.5574,0.5558,0.5529,0.5502,0.5481,0.5458,0.5439,0.5418,0.5393,0.536,0.5348,0.5317,0.5288,0.5244,0.5226,0.5201,0.52,0.5194,0.5192,0.519,0.519,0.522,0.5195,0.5195,0.5195,0.5195,0.5195,0,0.5561,0.5541,0.5516,0.5482,0.546,0.5451,0.5423,0.5405,0.5378,0.5352,0.5327,0.5292,0.5263,0.5235,0.5204,0.5189,0.5183,0.5181,0.5181,0.5177,0.5194,0.52,0.5187,0.5187,0.5187,0.5187,0.5187,0.5187,0.5552,0.5523,0.5508,0.5468,0.5448,0.5417,0.5402,0.538,0.5359,0.532,0.5295,0.5277,0.525,0.5216,0.5188,0.518,0.5169,0.5168,0.5159,0.5175,0.5176,0.5177,0.5183,0.5166,0.5166,0.5144,0.5144,0.5144]}]]